GFSSGP_250_spd_132.txt.gz
Wind_Speed
17 15 7 5 18 20 10 11 12 10 4 16 15 13 6 10 16 20 27 30 33 39 44 45 43 38 39 37 28 17 15 15 12 13 16 16 11 8 10 9 12 10 12 15 18 18 22 18 21
15 18 9 6 19 16 12 6 14 14 13 3 6 16 16 15 14 19 22 28 34 36 43 47 50 44 39 39 31 23 18 12 25 16 23 4 9 9 10 10 10 10 11 15 16 17 15 15 19
12 6 5 10 22 18 11 5 6 15 12 6 3 1 4 9 14 19 24 25 30 38 41 44 49 52 45 41 33 26 21 23 23 21 23 13 10 11 12 16 8 6 13 12 10 10 12 16 18
13 5 11 13 15 16 11 6 5 9 10 12 10 11 9 11 7 18 27 26 29 32 37 43 50 48 49 45 38 29 31 26 23 33 16 15 15 14 15 10 7 9 12 4 6 6 8 16 19
12 8 10 25 20 17 15 8 8 8 10 10 14 12 7 12 15 14 26 31 28 30 30 41 47 48 51 47 46 30 33 29 26 25 24 21 21 20 17 14 12 11 7 4 7 4 8 16 20
11 12 13 12 17 17 16 14 16 12 12 8 7 13 12 20 18 18 22 28 28 26 29 33 47 50 49 50 50 38 28 29 35 31 28 29 28 22 21 17 13 14 13 8 7 6 10 16 17
3 10 12 6 13 18 20 23 23 19 13 11 12 15 14 10 6 12 17 23 31 28 28 33 36 47 51 51 55 51 40 29 27 36 30 21 26 21 22 14 17 20 17 13 9 12 15 15 16
9 9 12 11 14 20 21 24 27 25 22 16 15 21 22 11 9 8 11 13 16 26 27 28 29 36 52 53 58 56 51 49 35 27 34 33 32 29 17 18 17 18 12 12 14 14 15 16 12
14 11 9 12 15 16 18 21 27 28 26 22 19 19 20 14 5 3 8 11 13 16 23 25 26 28 38 59 61 59 60 58 51 43 35 38 37 30 24 21 21 25 19 12 11 16 17 15 12
12 12 13 13 13 14 17 20 21 24 26 24 18 16 19 18 8 3 3 8 10 12 20 24 25 27 29 40 59 62 62 60 55 44 41 37 39 38 34 29 27 23 23 18 17 22 17 16 14
10 12 13 14 14 14 15 16 17 18 19 21 23 21 19 20 18 4 1 10 11 11 14 19 20 23 22 28 34 46 56 58 52 51 49 39 41 44 37 32 35 28 24 25 22 21 19 17 13
13 15 16 16 16 16 16 16 14 16 17 18 21 24 24 20 19 17 3 8 10 7 8 13 14 18 24 23 19 26 35 46 56 57 51 54 46 38 40 36 36 31 28 23 23 25 22 18 17
15 16 17 17 17 16 16 15 19 16 17 17 17 19 22 22 19 17 14 7 5 6 5 7 9 15 22 24 16 12 24 33 40 48 49 49 52 45 44 44 44 38 29 27 26 31 23 17 21
20 19 19 19 19 18 17 14 12 17 14 14 13 15 17 20 20 17 14 11 2 6 7 6 7 11 15 18 15 15 14 17 24 34 45 50 58 57 54 51 50 46 41 38 27 30 23 23 25
24 23 20 19 19 20 18 17 11 10 16 14 13 11 13 13 15 16 15 14 9 4 6 9 8 21 14 18 15 15 15 16 16 24 24 43 56 51 55 51 51 46 43 41 34 31 27 28 25
25 24 22 20 19 20 21 18 17 7 8 15 15 13 10 12 11 13 16 13 11 9 9 6 11 11 19 19 15 23 19 20 17 16 18 16 33 49 45 43 51 48 45 39 34 33 33 31 22
27 27 27 23 20 19 23 20 21 16 6 8 12 14 13 10 11 11 11 13 10 10 10 9 9 14 15 15 14 14 30 25 28 24 24 21 22 31 34 43 43 41 37 39 40 36 37 37 34
28 28 27 28 23 20 22 21 20 22 14 10 10 10 12 13 11 11 9 9 10 11 11 12 8 10 15 19 19 17 17 21 25 35 33 31 28 27 27 31 35 36 38 44 45 43 41 39 38
30 30 25 30 27 23 22 21 20 21 19 14 14 11 11 9 10 12 12 9 7 11 11 12 13 9 11 17 24 24 25 22 22 23 37 35 34 34 35 35 35 33 36 37 38 42 43 38 39
33 30 28 31 30 29 25 23 22 21 21 20 18 17 12 11 9 13 15 14 13 12 15 12 11 12 14 13 17 23 28 29 29 27 26 30 39 38 38 40 36 38 41 40 37 41 42 40 38
33 34 33 32 30 29 25 24 23 21 22 23 21 18 17 14 11 13 15 16 15 15 16 15 14 13 14 17 17 19 23 27 28 32 31 29 30 37 39 41 41 40 40 38 40 43 42 41 46
35 35 35 33 32 29 24 20 21 19 23 24 22 22 19 18 15 13 14 16 16 18 18 17 17 18 19 18 19 22 23 24 27 28 34 33 32 33 36 37 40 41 39 39 39 42 46 48 51
38 39 38 36 32 29 24 22 17 13 18 23 25 28 24 22 20 16 16 18 20 18 18 21 20 23 23 23 22 21 24 27 27 29 32 36 40 38 38 36 37 38 37 36 40 42 45 47 52
41 42 39 36 31 26 20 18 15 11 12 16 17 18 24 24 23 20 15 18 23 23 23 23 24 26 26 26 25 25 25 27 30 31 32 34 38 44 44 42 42 42 42 41 39 43 45 45 42
43 43 39 35 30 23 16 16 14 10 11 12 14 14 17 21 23 23 25 22 25 30 32 30 30 31 30 29 27 27 27 28 29 30 33 35 37 40 47 46 45 43 46 45 44 43 44 39 35
43 42 39 33 27 24 18 16 17 15 12 12 15 17 20 25 28 29 31 34 34 31 31 34 34 34 33 33 33 30 31 31 31 33 32 34 38 41 47 50 49 47 41 43 44 42 42 36 33
42 43 41 34 29 27 28 23 18 16 15 15 18 22 26 30 32 36 37 38 38 39 40 39 36 37 38 37 37 37 36 36 37 36 36 35 37 42 44 48 51 56 54 45 46 44 40 35 29
45 43 38 37 35 33 30 28 27 23 21 22 25 28 32 37 40 42 42 44 42 41 42 42 45 46 43 41 41 40 40 40 39 40 39 39 40 41 44 46 51 50 51 53 49 43 40 35 30
45 43 42 38 38 39 37 34 34 34 32 32 34 35 38 41 43 45 44 45 46 46 43 44 46 46 46 48 48 47 46 43 42 43 44 43 42 45 46 46 48 54 51 49 47 45 38 34 30
44 43 43 42 44 42 41 40 38 36 36 37 36 38 40 40 42 44 45 46 48 49 47 46 50 49 50 49 49 49 52 53 50 45 46 45 45 48 46 48 48 53 50 45 44 45 37 31 26

GFSSGP_250_spd_138.txt.gz
Wind_Speed
17 16 14 24 22 19 14 4 3 9 8 6 11 10 10 12 16 23 28 35 42 38 37 32 31 31 26 27 22 21 14 9 8 23 18 12 9 9 13 4 6 8 11 12 12 14 16 21 27
13 17 20 21 23 20 17 10 5 9 13 6 3 10 11 10 10 15 22 26 32 35 36 38 33 34 30 28 29 29 23 18 20 20 17 15 6 10 8 2 6 5 9 9 8 11 14 21 29
20 22 23 26 24 24 25 19 12 7 4 5 1 1 13 16 15 16 17 18 23 27 33 38 41 34 35 30 33 30 24 20 18 21 16 19 14 15 5 8 11 3 7 5 7 9 13 21 27
25 23 25 24 23 28 30 27 22 15 9 5 4 5 8 12 12 21 23 26 23 25 25 37 43 42 38 36 37 36 32 23 20 19 17 12 13 21 7 11 10 3 7 6 7 14 13 20 24
20 19 22 24 26 28 28 28 25 23 16 10 8 6 8 14 15 16 15 17 25 28 28 32 43 45 44 42 40 38 36 35 27 19 19 19 17 25 5 8 8 8 8 7 9 12 10 18 22
13 11 18 22 23 23 23 23 22 21 21 18 9 4 8 10 17 22 22 18 21 24 27 30 35 42 47 46 41 40 40 39 33 27 12 15 22 23 20 13 15 15 13 5 7 9 9 15 19
9 10 15 18 19 21 22 20 19 19 19 20 20 15 10 6 9 14 17 19 24 22 26 30 25 32 39 46 45 40 38 39 35 31 25 29 25 23 31 30 19 18 15 8 10 10 9 12 14
14 16 16 21 21 21 19 19 19 21 20 18 19 23 22 15 6 3 9 10 12 19 23 28 24 26 28 40 42 43 40 38 37 41 39 37 27 29 23 22 19 22 20 14 11 11 10 10 16
14 20 15 14 17 19 20 17 17 17 17 20 20 24 25 22 11 6 4 4 6 13 15 24 32 24 22 26 40 41 41 39 40 39 45 42 35 29 26 18 19 17 16 14 12 13 19 9 18
16 16 15 13 15 17 18 18 17 16 16 17 18 20 23 23 19 10 6 6 5 6 8 14 23 23 20 19 26 39 37 41 39 39 44 41 38 38 29 27 29 31 33 23 20 25 25 12 24
19 18 16 16 16 16 16 17 17 18 16 16 17 19 23 25 25 18 10 5 3 3 0 3 18 20 21 20 21 29 42 47 43 42 38 40 36 34 34 31 31 28 30 29 26 23 24 24 26
22 23 21 18 18 17 17 16 15 15 15 14 15 16 18 22 24 21 11 5 3 3 4 3 7 14 17 19 19 24 34 44 48 53 39 40 39 38 32 31 35 37 36 35 31 27 30 30 24
22 23 23 20 18 19 18 17 16 14 15 12 11 13 14 15 18 17 15 12 6 4 3 3 1 6 11 14 17 18 24 35 46 47 49 46 44 38 45 47 48 44 38 35 40 36 33 31 26
20 21 21 21 20 20 20 19 18 15 12 13 13 10 11 12 11 13 14 12 10 9 5 5 4 2 5 11 15 18 17 18 21 31 46 48 50 48 46 48 40 42 43 38 38 40 35 28 28
21 21 22 22 21 20 20 19 20 18 16 12 13 14 9 8 11 10 11 12 10 10 8 6 4 5 5 9 16 20 19 19 16 17 21 36 53 48 50 51 49 43 45 44 33 40 38 38 31
23 22 23 24 22 23 21 20 20 20 20 16 14 12 14 10 6 8 8 8 10 9 7 9 5 5 8 9 13 15 20 22 22 20 18 17 24 35 44 48 55 46 49 45 40 44 39 41 37
25 22 22 22 24 25 23 19 20 21 21 18 17 15 14 14 10 6 9 8 9 7 7 7 6 6 7 13 16 18 22 21 21 21 21 18 16 16 23 35 45 55 54 56 50 47 39 40 39
29 25 25 23 25 24 23 21 18 20 21 20 19 19 19 17 14 12 9 10 11 10 9 9 9 7 7 8 15 18 19 22 22 27 27 26 24 22 21 21 24 39 43 45 47 50 48 46 41
34 25 24 25 26 27 25 23 19 18 19 21 22 22 22 19 18 16 14 9 12 11 9 11 12 11 8 8 10 13 19 22 23 26 30 24 27 28 31 30 26 23 38 44 46 48 40 41 41
36 28 26 27 30 28 27 24 20 19 17 19 22 23 24 21 21 20 20 17 15 12 7 11 10 11 10 11 12 13 16 18 20 24 28 28 28 28 32 33 32 30 28 39 46 48 46 44 43
37 32 28 28 28 30 26 24 21 22 18 18 20 23 24 22 20 20 21 19 18 15 11 13 13 15 13 13 15 16 17 19 21 21 21 22 25 30 32 32 35 36 34 34 32 31 33 35 35
36 33 30 27 28 30 27 21 19 18 17 19 20 21 22 21 18 16 16 18 17 18 16 16 18 19 19 20 21 20 21 21 23 25 23 24 30 27 31 29 34 37 41 39 37 37 34 34 35
37 35 33 30 29 28 28 23 22 21 17 18 18 17 16 16 12 10 12 15 17 17 18 19 21 21 23 25 26 25 26 24 27 27 28 27 27 32 34 31 30 35 32 39 46 44 40 38 38
36 36 34 32 30 28 27 24 22 22 23 21 22 17 16 15 13 12 13 14 18 19 19 21 24 26 26 27 29 31 32 32 33 32 30 33 33 34 34 34 34 34 34 37 34 38 43 42 41
35 38 36 33 31 31 26 26 25 25 23 24 25 25 23 22 21 22 22 22 20 21 25 27 28 30 31 33 33 34 35 36 37 37 38 40 40 39 39 38 39 38 37 38 40 39 37 36 35
37 40 39 35 33 31 28 26 26 26 23 20 21 24 27 28 26 28 29 27 27 28 29 30 31 32 34 36 36 35 36 38 39 39 41 43 44 44 43 42 41 42 42 40 40 41 40 41 35
39 42 42 38 34 32 31 27 27 28 27 26 25 25 29 31 33 34 31 30 30 30 30 29 29 30 32 33 34 35 39 40 41 41 43 44 45 46 47 48 47 45 46 45 42 43 47 43 43
41 45 45 42 39 36 35 33 30 29 30 30 30 30 32 34 37 37 36 33 31 30 29 30 31 33 34 36 37 40 39 38 40 45 49 50 50 50 50 51 51 52 50 49 49 48 47 50 49
46 49 48 47 45 43 40 37 35 34 33 33 35 35 36 38 39 40 37 36 34 33 33 35 36 38 37 40 46 48 48 48 49 50 51 52 54 55 55 57 56 55 55 55 52 53 53 51 57
51 51 52 51 50 49 45 43 38 38 39 39 38 38 38 40 41 43 43 42 41 40 40 35 42 44 45 47 49 50 53 54 56 57 56 58 60 61 59 60 61 62 61 60 58 55 56 55 56

GFSSGP_250_spd_144.txt.gz
Wind_Speed
21 18 21 17 11 7 14 16 14 14 15 24 30 35 34 42 42 41 38 35 36 33 34 34 30 26 25 28 27 22 22 24 22 23 16 12 7 10 8 8 14 2 8 12 17 24 28 25 31
20 20 22 22 22 14 8 13 13 10 12 15 23 30 35 39 47 45 40 37 35 36 35 35 31 27 24 25 30 24 26 21 25 24 20 10 12 18 13 11 7 1 7 8 14 20 21 27 27
17 18 18 18 21 23 20 12 6 7 11 10 17 23 27 36 43 48 44 44 41 34 38 37 34 30 28 26 25 22 24 22 21 23 24 21 17 18 15 9 16 6 5 8 13 16 21 20 22
11 10 11 11 15 18 19 19 18 12 5 5 10 16 20 25 33 44 43 41 44 43 39 39 35 30 26 29 31 30 27 28 26 20 20 23 16 18 18 15 17 5 3 7 14 15 20 19 23
11 10 14 6 11 15 15 14 15 14 12 8 3 9 14 21 24 30 40 42 44 45 43 40 41 40 36 32 29 30 31 31 28 28 22 30 27 24 19 19 24 8 3 12 15 15 20 13 21
9 10 12 7 13 15 15 12 10 9 8 9 7 2 11 18 23 24 25 31 38 43 39 41 36 36 34 38 35 25 25 31 31 27 22 23 25 20 14 19 22 12 11 8 18 23 20 15 22
16 16 13 11 15 15 13 11 9 8 8 8 8 5 2 10 21 26 27 27 32 38 38 39 37 30 35 37 37 34 30 29 30 30 28 24 24 16 10 22 25 17 13 13 16 19 17 16 18
18 18 17 16 14 15 14 13 10 8 8 7 8 9 7 7 9 19 26 30 32 35 42 41 45 43 41 41 39 40 34 33 33 34 27 26 28 23 22 26 26 22 22 17 25 23 14 18 23
20 19 20 19 17 15 15 13 12 10 7 5 8 8 9 6 7 12 18 23 32 36 38 41 41 43 46 43 42 42 41 41 37 39 40 38 28 24 28 28 23 30 27 21 17 16 14 18 13
21 21 20 20 19 17 16 16 15 12 10 8 6 7 11 12 3 9 13 17 26 31 34 36 46 37 37 31 43 48 42 35 39 41 39 39 36 34 37 37 34 25 18 17 14 14 16 13 14
21 22 21 21 19 18 18 17 16 14 12 9 8 7 9 12 12 6 11 14 18 23 30 36 40 47 37 33 33 31 34 33 31 35 37 42 36 35 36 30 34 30 22 19 22 23 18 14 19
21 21 20 19 19 19 18 18 17 16 13 11 8 7 5 7 11 10 6 8 11 15 19 24 30 42 48 44 31 25 23 25 29 36 36 36 38 38 38 39 32 29 29 31 28 24 25 24 27
21 21 21 21 20 19 19 18 17 16 14 13 10 6 4 3 4 8 8 7 6 7 8 14 21 25 36 39 31 25 25 25 24 30 34 39 40 38 39 41 42 43 37 33 33 35 38 32 35
24 23 24 23 22 21 19 18 17 16 13 13 12 10 7 4 2 3 5 7 8 6 7 6 11 19 22 23 28 26 27 27 26 28 34 35 40 40 40 39 39 36 39 41 42 40 36 38 33
29 25 24 24 25 23 21 18 15 16 16 12 12 11 11 9 5 1 3 2 5 6 7 3 4 11 18 22 25 25 28 29 30 33 37 38 42 39 39 39 33 39 42 39 38 38 43 40 32
30 26 23 24 25 26 23 19 16 14 14 15 13 13 12 12 11 8 3 3 4 1 2 4 4 0 9 15 20 24 23 23 25 29 32 39 43 41 42 38 36 35 34 35 40 35 35 35 35
29 29 28 24 24 26 26 21 17 14 12 12 14 13 13 13 10 10 11 6 5 6 4 2 2 1 2 6 11 12 16 19 20 21 20 22 27 42 49 43 38 42 44 45 44 46 44 45 42
25 30 31 30 28 28 29 24 23 22 18 14 13 14 14 14 13 9 10 11 10 8 7 7 7 7 5 5 7 11 14 17 18 20 23 24 26 28 31 31 27 27 27 43 48 45 41 44 44
21 26 30 32 29 28 28 27 22 23 24 21 16 12 11 12 14 14 10 9 11 11 9 9 9 8 6 8 8 9 12 17 20 22 24 27 30 29 30 33 32 32 29 25 31 39 44 46 46
21 23 26 30 31 29 27 26 26 23 22 23 22 20 16 14 14 14 13 11 9 10 13 13 10 11 12 10 10 11 12 12 13 15 18 21 24 29 29 32 32 33 36 34 34 32 39 34 41
23 23 25 27 30 30 29 25 25 25 24 22 23 23 22 19 15 12 12 13 12 9 11 15 16 16 16 14 14 14 15 16 15 16 19 20 21 24 28 32 34 36 38 36 36 40 40 38 41
22 25 25 28 29 32 29 29 26 24 23 22 20 21 21 21 20 17 15 14 14 10 11 13 15 18 21 20 19 20 20 23 23 24 23 23 23 25 26 28 32 31 31 36 38 39 40 41 41
22 26 26 27 30 32 33 32 29 26 23 21 21 21 20 20 21 19 18 16 12 11 10 13 15 18 21 24 25 25 25 25 27 28 29 29 30 29 31 31 32 33 30 31 34 36 40 40 44
22 25 27 27 29 32 34 35 36 31 28 25 23 22 21 21 17 17 18 19 19 19 19 20 21 22 24 25 26 27 28 29 31 32 32 32 33 34 34 35 36 39 37 38 37 38 39 40 41
22 24 27 27 28 30 33 35 37 38 32 28 26 24 22 19 19 20 20 20 22 22 23 24 27 29 30 31 32 32 31 32 32 33 33 33 34 35 36 38 39 41 42 42 42 41 41 41 43
24 26 28 28 29 30 31 34 37 40 39 37 33 28 25 23 23 20 20 22 23 24 25 27 30 32 33 33 33 33 33 34 33 33 32 33 33 34 36 37 39 42 43 44 43 44 44 43 43
29 29 31 30 31 32 33 34 35 41 43 41 40 37 34 31 31 29 25 24 25 26 26 28 30 32 34 37 38 36 36 37 35 35 37 38 40 41 41 41 42 44 44 45 46 47 47 46 47
32 32 33 32 32 34 35 35 37 41 44 45 45 44 40 38 37 35 34 34 33 33 35 36 35 35 37 39 41 43 44 45 46 45 45 45 46 46 47 48 49 49 48 48 49 50 52 53 53
37 37 36 35 34 36 37 37 39 42 45 46 46 44 44 42 42 42 41 40 40 41 41 40 43 44 43 45 46 47 49 52 54 51 52 53 54 55 56 57 56 56 56 56 56 55 57 57 57
40 41 40 39 38 37 39 41 43 45 47 48 48 47 48 46 46 46 47 47 47 49 48 47 47 47 49 50 50 52 53 54 54 56 61 64 63 64 64 66 66 66 67 67 64 61 60 61 64

GFSSGP_250_spd_147.txt.gz
Wind_Speed
19 19 18 8 9 16 22 29 32 32 30 33 28 29 34 34 35 43 38 36 35 34 33 29 27 27 27 19 23 17 18 21 18 16 19 15 10 8 14 7 15 11 2 9 16 20 23 27 35
17 17 19 20 14 8 14 19 26 29 36 37 36 35 34 38 35 34 39 39 34 35 32 31 30 29 26 26 26 26 22 22 26 23 20 22 19 15 16 21 19 16 14 9 12 19 23 29 35
13 14 12 14 19 18 9 10 15 15 19 26 39 42 37 37 38 37 37 39 39 41 35 34 34 32 34 28 25 22 21 20 21 22 19 22 19 17 20 18 22 17 8 7 12 15 23 27 28
9 9 11 4 6 15 15 14 7 8 10 15 25 32 42 43 42 39 40 42 38 37 42 37 33 38 34 34 28 27 21 20 21 23 24 23 22 25 15 16 20 16 15 3 8 13 23 26 25
4 5 4 7 4 6 10 10 10 9 7 9 13 22 32 37 39 41 48 45 44 40 37 30 34 33 34 31 27 26 28 27 30 24 22 15 21 22 24 27 24 21 12 3 9 14 18 22 27
6 6 10 2 5 6 9 8 6 4 2 5 5 10 17 26 30 35 41 49 50 46 45 41 26 18 32 28 29 28 30 29 30 30 27 25 23 28 27 27 18 18 18 7 9 12 15 10 21
9 12 6 5 8 9 9 7 5 3 1 0 2 4 8 19 22 28 33 39 43 46 42 43 48 31 28 30 20 16 24 28 30 26 25 25 22 19 18 17 17 18 16 15 9 14 13 9 17
10 11 11 9 8 10 9 8 5 1 1 2 1 2 3 6 16 29 31 38 39 41 50 47 44 46 31 23 34 23 29 25 28 29 26 27 27 27 26 19 13 26 24 16 21 18 14 12 11
14 15 15 13 11 10 10 8 7 4 2 1 3 3 2 3 7 14 28 35 38 39 39 40 44 44 40 32 39 41 27 24 25 28 29 28 23 24 28 27 19 22 28 27 24 20 9 13 10
18 20 19 17 16 14 12 11 9 6 5 3 2 3 4 5 4 9 10 18 34 38 41 43 42 48 42 40 35 38 38 41 38 33 32 33 36 36 23 24 30 30 28 25 18 15 11 14 11
21 23 22 21 20 16 12 10 8 8 6 5 3 1 2 5 5 3 10 15 20 34 41 45 47 47 52 48 46 42 41 45 42 41 38 36 37 40 39 29 30 31 35 33 28 18 17 20 15
24 25 24 24 23 21 18 14 10 9 7 6 5 3 1 3 5 3 5 12 16 24 31 40 46 49 48 46 47 48 40 39 42 41 35 32 32 34 39 39 36 28 25 26 22 23 26 24 21
24 24 26 25 25 22 19 16 13 11 8 6 5 3 2 3 2 3 2 5 8 15 25 29 37 42 46 51 46 40 35 30 28 29 29 33 37 35 39 36 37 37 37 34 29 30 28 27 30
27 26 25 25 26 25 20 18 16 13 10 7 5 3 2 2 4 5 3 3 3 8 13 14 27 34 36 43 48 51 45 38 32 31 31 30 36 41 40 38 41 39 40 39 38 36 34 35 33
31 30 28 27 26 27 24 20 17 15 14 11 9 7 5 3 2 5 8 6 4 3 4 12 13 17 26 31 33 39 42 33 29 31 32 34 35 34 36 40 40 41 39 37 35 34 35 36 36
30 32 30 29 27 26 26 23 22 18 14 13 11 9 6 6 4 2 5 7 7 4 2 1 6 12 14 24 28 31 30 29 31 32 34 37 37 36 39 38 32 34 36 39 43 45 45 42 38
25 28 32 30 28 27 27 24 21 21 19 16 13 11 9 7 7 6 2 5 7 8 6 3 3 2 6 13 17 20 25 27 29 28 27 26 29 39 44 43 41 41 44 40 39 36 38 41 37
23 24 27 30 31 30 26 25 23 20 19 20 19 16 14 10 6 7 8 3 4 7 9 6 6 6 8 7 10 15 19 22 24 25 25 27 26 25 27 33 40 50 44 45 33 41 48 45 42
21 22 23 27 31 30 28 26 24 24 22 19 18 18 17 15 13 9 8 7 5 4 7 9 9 9 9 10 12 11 13 16 19 22 24 24 25 27 29 31 34 35 37 31 32 27 24 34 38
19 21 22 22 27 31 31 27 26 24 24 23 22 18 18 18 17 15 12 8 6 5 6 8 10 10 11 12 12 12 13 14 15 18 21 23 26 29 31 32 32 34 35 37 39 36 33 33 39
18 19 21 22 22 26 30 30 28 24 23 24 24 23 20 16 16 16 16 15 11 9 9 11 11 13 17 17 17 17 16 16 18 21 23 22 23 24 25 26 30 33 35 34 37 39 39 39 41
19 19 20 21 22 23 25 28 28 26 25 23 23 24 23 21 17 15 16 18 16 12 10 11 12 15 18 21 23 24 23 23 21 27 28 28 28 28 27 27 29 29 32 35 32 34 38 41 42
22 23 22 22 22 22 24 27 28 27 24 23 23 22 23 23 21 20 19 16 12 12 14 16 17 18 19 20 23 26 30 31 30 30 30 31 32 33 34 34 32 34 33 35 34 35 36 37 38
25 23 24 24 23 23 23 25 27 28 24 19 20 21 22 22 22 21 19 19 19 19 18 19 20 21 24 26 27 28 29 30 31 32 34 34 34 34 36 37 39 40 40 38 37 38 40 42 40
27 25 25 26 26 26 26 26 26 29 29 27 22 19 18 19 22 23 21 20 20 22 22 23 25 26 28 29 30 31 33 34 35 37 37 37 37 38 40 42 42 42 42 42 42 42 43 44 44
28 27 26 27 27 28 29 28 29 29 31 31 32 26 22 20 21 21 22 24 24 25 27 28 29 30 32 34 35 35 35 34 35 37 38 39 38 38 40 41 42 43 43 44 45 46 46 46 47
32 30 29 30 31 30 31 32 30 32 32 33 36 38 35 30 24 24 24 27 27 28 31 35 37 39 38 39 40 42 43 43 44 42 42 42 42 44 45 45 46 46 45 46 48 48 48 48 49
35 33 32 32 34 34 32 34 33 36 35 36 38 39 42 39 38 34 32 33 33 35 36 39 41 37 40 43 45 45 46 47 49 51 52 52 52 52 51 54 53 53 54 53 52 52 53 53 54
38 36 37 36 36 38 38 36 36 37 39 39 40 41 44 47 47 45 42 41 40 41 43 45 46 41 39 45 48 50 51 52 51 53 54 56 60 62 63 62 63 62 63 63 61 61 61 60 59
42 39 40 38 38 40 42 40 35 40 40 43 43 42 46 48 50 50 48 47 47 48 50 51 53 50 51 53 54 55 55 57 55 55 57 59 61 65 66 67 69 71 73 72 71 71 70 69 68